User: anonymous
Location: Black Rock Desert
(40.7548°N, 119.2364°W)
Time: 18:55:57
(UTC-07:00)
Language:

Cosmos 1340 Rocket - Orbit

View from above orbital plane
View from above orbital plane
View from above satellite
View from above satellite

Ground track
Ground track

The orbit data is extracted from the following two-line orbital elements,

1 13068U 82013B   14233.46989440  .00000335  00000-0  22200-4 0  4782
2 13068 081.2059 317.6068 0024351 115.5477 244.8267 15.04331630768359
Epoch (UTC): 21 August 2014 11:16:38
Eccentricity: 0.0024351
inclination: 81.2059°
perigee height: 536 km
apogee height: 570 km
right ascension of ascending node: 317.6068°
argument of perigee: 115.5477°
revolutions per day: 15.04331630
mean anomaly at epoch: 244.8267°
orbit number at epoch: 76835

The dashed part of the orbit path shows where the satellite is in the earth's shadow,  

DLR